TimeEET,TemperatureF,Dew PointF,Humidity,Sea Level PressureIn,VisibilityMPH,Wind Direction,Wind SpeedMPH,Gust SpeedMPH,PrecipitationIn,Events,Conditions,WindDirDegrees,DateUTC
12:50 AM,33.8,26.6,75,30.30,-9999.0,North,3.5,-,N/A,,Clear,360,2013-02-25 22:50:00
1:50 AM,33.8,26.6,75,30.30,-9999.0,East,4.6,-,N/A,,Clear,100,2013-02-25 23:50:00
2:00 AM,35,26,59,,9,East,4.6,,,,,100,2013-02-26 00:00:00
2:50 AM,26.6,24.8,93,30.30,-9999.0,Calm,Calm,-,N/A,,Clear,0,2013-02-26 00:50:00
3:50 AM,26.6,24.8,93,30.27,-9999.0,Calm,Calm,-,N/A,,Clear,0,2013-02-26 01:50:00
4:50 AM,26.6,24.8,93,30.27,-9999.0,Calm,Calm,-,N/A,,Clear,0,2013-02-26 02:50:00
5:50 AM,26.6,23.0,86,30.27,-9999.0,Calm,Calm,-,N/A,,Clear,0,2013-02-26 03:50:00
6:50 AM,26.6,24.8,93,30.27,-9999.0,Calm,Calm,-,N/A,,Clear,0,2013-02-26 04:50:00
7:50 AM,35.6,28.4,75,30.27,-9999.0,Calm,Calm,-,N/A,,Clear,0,2013-02-26 05:50:00
8:00 AM,36,28,63,,9,Calm,Calm,,,,Clear,,2013-02-26 06:00:00
8:50 AM,39.2,26.6,61,30.27,-9999.0,Variable,1.2,-,N/A,,Clear,0,2013-02-26 06:50:00
9:50 AM,44.6,28.4,53,30.24,-9999.0,Variable,1.2,-,N/A,,Clear,0,2013-02-26 07:50:00
10:50 AM,46.4,26.6,46,30.24,-9999.0,Variable,3.5,-,N/A,,Clear,0,2013-02-26 08:50:00
11:50 AM,48.2,26.6,43,30.21,-9999.0,Variable,4.6,-,N/A,,Clear,0,2013-02-26 09:50:00
12:50 PM,51.8,26.6,38,30.18,-9999.0,SSE,3.5,-,N/A,,Clear,160,2013-02-26 10:50:00
1:50 PM,51.8,24.8,35,30.15,-9999.0,SSE,5.8,-,N/A,,Clear,150,2013-02-26 11:50:00
2:00 PM,52,24,22,,6,SSE,5.8,,,,Clear,150,2013-02-26 12:00:00
2:50 PM,53.6,24.8,33,30.12,-9999.0,South,3.5,-,N/A,,Clear,180,2013-02-26 12:50:00
3:50 PM,53.6,24.8,33,30.12,-9999.0,Variable,2.3,-,N/A,,Clear,0,2013-02-26 13:50:00
4:50 PM,51.8,23.0,33,30.12,-9999.0,Variable,1.2,-,N/A,,Clear,0,2013-02-26 14:50:00
5:50 PM,42.8,24.8,49,30.12,-9999.0,SE,5.8,-,N/A,,Clear,140,2013-02-26 15:50:00
6:50 PM,41.0,28.4,61,30.15,-9999.0,SE,3.5,-,N/A,,Clear,130,2013-02-26 16:50:00
7:50 PM,39.2,26.6,61,30.15,-9999.0,Calm,Calm,-,N/A,,Clear,0,2013-02-26 17:50:00
8:00 PM,39,27,50,,12,Calm,Calm,,,,,,2013-02-26 18:00:00
8:50 PM,37.4,26.6,65,30.15,-9999.0,Variable,1.2,-,N/A,,Clear,0,2013-02-26 18:50:00
9:50 PM,35.6,26.6,70,30.15,-9999.0,Calm,Calm,-,N/A,,Clear,0,2013-02-26 19:50:00
10:50 PM,35.6,26.6,70,30.15,-9999.0,Calm,Calm,-,N/A,,Clear,0,2013-02-26 20:50:00
11:50 PM,32.0,26.6,80,30.15,-9999.0,NW,1.2,-,N/A,,Clear,320,2013-02-26 21:50:00